Find Starlink 4320

NORAD ID: 53059 Int'l Des: 2022-077 Owner: SPXS Country: US Constellation: starlink operational
LEOCIRCULARRETROGRADESSO

現在のビュー

3D地球を読み込み中...

About Starlink 4320

Starlink 4320 (NORAD 53059) is a starlink constellation satellite (v1.5) launched Jul 11, 2022 by SPXS of US. It operates in LEO, CIRCULAR, RETROGRADE, SSO orbit with a mass of 297.00 kg.

次回通過

Passes for default location (London). Set your location on the main map for personalized predictions.

高度履歴

Loading altitude history...

軌道要素

1 53059U 22077S 26246.91668981 .00128042 00000-0 39817-2 0 9995
2 53059 97.2843 62.0037 0000681 127.3037 220.7211 15.32797013 5731
Epoch: Sep 3, 2026 • Age: 9 hours

現在のステータス

高度 481.2 km
遠地点 / 近地点 N/A
速度 7.62 km/s
衛星直下点 -35.47°S, 25.32°W
打ち上げ日 Jul 11, 2022
運用期間 4.1 years
タイプ internet

技術仕様

分類 Payload
質量 297.00 kg
乾燥質量 275.00 kg
総質量 297.00 kg
長さ 0.20 m
直径 2.80 m
スパン 9.00 m
形状 Box + pan
製造者 SPXS
バスタイプ Starlink
フェーズステータス In Orbit
所有者/国 SPXS/US

Most Searched